Погода в Чаршанге

Погода в Чаршанге : погода сейчас, прогноз погоды и архив. Всё, что Вы хотите узнать о погоде в Чаршанге!

Хотите узнать прогноз погоды в Чаршанге? Тогда Вам сюда: Погода в Чаршанге

Поиск расширенной информации на нашем сайте:

Другие новости

Новости СМИ2

Главная страница сайта

Новости сайта

03.07.2017

Напоминаем, что на нашем специализированном сайте Метеоцентр.Азия вы можете получить высокодетализированные автоматические прогнозы погоды по пунктам России, СНГ и мира в авиационном формате (включающие направление и скорость ветра, видимость, явления погоды, количество и форму облачности, нижнюю и верхнюю границу облачности).

Рекомендуем: промокод ebay август 2015

Погода в Чаршанге - сегодня

Время (UTC), дата Ветер
(°,м/с) 
Видим.   Явления Облачность Т
(°С)
Тd
(°С)
f(%) Тe
(°С)
Pmin
(гПа)
dP
(гПа)
Po
(мм)
O2
(г/м3)
Тmin Tmax R s Состояние
почвы
21 23.05.18 тихо ()   10 км    3/0 средняя 
[Ac lent]
+20.8 +6.7 40 +21  1015.4  -0.4  738  275           
00 24.05.18 090 (В) 10 км    3/0 средняя 
[Ac lent]
+19.4 +7.3 45 +20  1015.5  738  277           
03 24.05.18 тихо ()   10 км    ясно 
+24.8 +4.1 26 +25  1015  738  272           
06 24.05.18 140 (ЮВ) 10 км    ясно 
+32.1 +6.7 21 +32  1013.8  -0.5  738  265  +18.8         
09 24.05.18 190 (Ю) 10 км    ясно 
+33.7 +6.7 19 +34  1011.7  -1.8  737  263           
12 24.05.18 130 (ЮВ) 10 км    ясно 
+33.3 +5.9 18 +33  1009.7  -2.1  735  263           
15 24.05.18 330 (СЗ) 10 км    ясно 
+31.6 +5.1 19 +32  1008.9  -0.9  734  264    +34.6       
18 24.05.18 тихо ()   10 км    ясно 
+25 +6.2 30 +25  1009.5  -0.1  734  270    +34.6       
21 24.05.18 тихо ()   10 км    ясно 
+23 +5.9 33 +23  1008.9  -0.8  734  272           
00 25.05.18 тихо ()   10 км    ясно 
+19.8 +9 50 +20  1009.2  734  274           
03 25.05.18 250 (З) 10 км    ясно 
+23.8 +9.8 41 +25  1009.8  751  277           
06 25.05.18 170 (Ю) 10 км    ясно 
+31.5 +9.9 26 +33  1009.2  0.2  735  264  +19.2         
09 25.05.18 270 (З) 10 км    ясно 
+34.8 +5.9 17 +35  1007.9  -1  734  261           
12 25.05.18 тихо ()   10 км    3/0 верхняя 
[Ci fib]
+36.2 +4.8 14 +36  1005.9  -1.7  733  260           
15 25.05.18 310 (СЗ) 10 км    3/0 верхняя 
[Ci fib]
+32.6 +6.4 20 +33  1006.5  0.3  733  263    +36.8       
18 25.05.18 тихо ()   10 км    3/0 верхняя 
[Ci fib]
+29.6 +4.8 21 +30  1007.5  0.5  733  266    +36.8       
21 25.05.18 100 (В) 10 км    ясно верхняя 
[Ci fib]
+27.2 +5 24 +27  1007.3  -0.3  733  268           
00 26.05.18 тихо ()   10 км    3/0 верхняя 
[Ci fib]
+24.6 +7.3 33 +25  1007.4  -0.1  733  270           
03 26.05.18 тихо ()   10 км    ясно 
+23.6 +7.7 36 +24  1009.3  1.6  734  271           
06 26.05.18 тихо ()   10 км    ясно 
+32 +4.1 17 +32  1008.4  -0.1  734  264  +23.1         
09 26.05.18 330 (СЗ) 10 км    1/1 600 м 
[Cu med, cong]
+37.2 +0.9 10 +37  1006.6  -1.3  733  260           
12 26.05.18 310 (СЗ) 10 км    ясно 
+37 +0.9 10 +37  1005.1  -1.3  732  260           
15 26.05.18 290 (З) 10 км    ясно 
+33.3 +0.6 12 +33  1004.9  -0.6  732  263    +38       
18 26.05.18 тихо ()   10 км    ясно 
+28.8 +5.1 22 +29  1006.2  0.9  732  266    +38       
21 26.05.18 тихо ()   10 км    ясно 
+24.6 +9.4 38 +25  1006.7  0.1  732  269           
Время (UTC), дата Ветер
(°,м/с) 
Видим.   Явления Облачность Т
(°С)
Тd
(°С)
f(%) Тe
(°С)
Pmin
(гПа)
dP
(гПа)
Po
(мм)
O2
(г/м3)
Тmin Tmax R s Состояние
почвы

Для получения пояснительной информации подведите курсор к названию столбца.

ПОГОДА в Чаршанге - архив

Всё, что Вы хотите узнать о погоде в Чаршанге - удобно и подробно!

Выберите нужную дату (начиная с 1 января 2015* года) и нажмите кнопку "Найти".
Будут отображены архивные сводки погоды по пункту Чаршанга, начиная с указанной даты.


Отображать данные в формате CSV (для использования в таблицах Excel)


Внимание! Наш архив погоды предназначен исключительно для личного некоммерческого использования в познавательных целях. Если Вам необходимы официальные справки о состоянии погоды (для производственных, юридических, коммерческих и т.п. целей), обращайтесь в органы Росгидромета.

*Примечание: данная дата относится к архиву по метеостанциям СССР (Россия, СНГ, Балтия).
Архив по метеостанциям Зарубежной Европы и Азии (кроме Китая) хранится 10 дней, по другим регионам земного шара (Китай, Африка, Америка, Австралия, Океания) - 1 день.

Чаршанга - район местоположения метеостанции


Название, широта, долгота, высота метеостанции:
Чаршанга 37.5°ш. 66°д. 265 м над ур. моря [Туркменистан]

Дополнительная информация

В oтличие oт бoльшинства пoгoдных сайтoв мы публикуем пoдрoбную метеoинфoрмацию в детальнoм прoфессиoнальнoм фoрмате.

Характеристики температуры и влажнoсти вoздуха измеряются на высoте 2 м в тени вдали oт зданий и деревьев.
Скoрoсть ветра измеряется на высoте 10 м (на урoвне рoста челoвека скoрoсть ветра ниже в 1.5-2 раза). Если метеoстанция нахoдится в гoрoде или в лесу, тo скoрoсть ветра занижена на 2-4 м/с пo сравнению с oткрытым местoм. Скoрoсть ветра над акватoриями крупных рек и oзёр, а также на вершинах хoлмoв на 2-5 м/с выше, чем в oбычных услoвиях.
Атмoсфернoе давление в разных тoчках местнoсти мoжет значительнo oтличаться oт давления на метеoстанции, в зависимoсти oт услoвий рельефа (при пoдъёме на 10 м давление пoнижается примернo на 1 мм рт.ст.).